Meteo Giornale » Osservazioni meteo Italia » Capo Bellavista

ore: 15:55 - Osservazioni Meteo Capo Bellavista
Lat. 39° 56' N Lon. 9° 43' E Alt. 138 metri s.l.m.

nuvoloso Europe/Rome

20 °C

Nuvoloso

Temp. 24 Ore

15 °C

21 °C

Nord

3.7 Km/h

Dew point 15 °C

Umidità 72 %

Visibilità  10 Km

Il sole sorge alle ore 07:03

Il sole tramonta alle ore 17:07

Data e Ora Cielo e Fenomeni T °C DP °C Um. % Pres. hPa Vis. km Vento km/h
Oggi h: 15:55 nuvoloso Nuvoloso 20 15 72 1025 10 N 3.7
Oggi h: 14:55 nuvoloso Nuvoloso 21 15 68 1025 10 N 3.7
Oggi h: 13:55 nuvoloso Nuvoloso 21 16 73 1025 10 N 5.5
Oggi h: 12:55 nuvoloso Nuvoloso 20 15 72 1026 10 N 5.5
Oggi h: 11:55 poco_nuvoloso Poco Nuvoloso 19 15 77 1026 10 E/SE 7.4
Oggi h: 10:55 poco_nuvoloso Poco Nuvoloso 19 14 72 1027 10 E 7.4
Oggi h: 09:55 sereno Sereno 18 14 77 1027 10 N 3.7
Oggi h: 08:55 poco_nuvoloso Poco Nuvoloso 17 14 82 1026 10 N 0
Oggi h: 07:55 sereno Sereno 15 12 82 1026 10 O 9.3
Oggi h: 06:55 poco_nuvoloso Poco Nuvoloso 15 12 82 1026 10 O 7.4
Oggi h: 05:55 sereno Sereno 16 12 77 1026 10 N 5.5
Oggi h: 03:55 poco_nuvoloso Poco Nuvoloso 16 12 77 1026 10 NO 9.3
Oggi h: 02:55 poco_nuvoloso Poco Nuvoloso 16 12 77 1027 10 O/NO 9.3
Oggi h: 01:55 sereno Sereno 16 12 77 1027 10 SO 9.3
Oggi h: 00:55 sereno Sereno 16 13 82 1027 10 N 5.5
Ieri h: 23:55 sereno Sereno 16 14 87 1027 10 O 9.3
Ieri h: 22:55 sereno Sereno 16 15 93 1027 10 O 11.1
Ieri h: 21:55 poco_nuvoloso Poco Nuvoloso 16 15 93 1027 10 O 11.1
Ieri h: 19:55 molto_nuvoloso Molto Nuvoloso 18 17 93 1027 8 SO 9.3
Ieri h: 18:55 nuvoloso Nuvoloso 18 18 100 1027 8 S/SO 9.3
Ieri h: 17:55 molto_nuvoloso Molto Nuvoloso 18 18 100 1027 10 S/SO 11.1
Ieri h: 16:55 nuvoloso Nuvoloso 19 18 93 1027 10 S 7.4